Location: Cerroniocc
(13.7547°S, 72.0222°W)
Time: 19:12:59
(UTC+00:00)

Palapa 6 Rocket - Pass Details

Date: 05 July 2020
Orbit: 485 x 1217 km, 22.7° (Epoch: 11 August)

Event Time Altitude Azimuth Distance (km) Brightness Sun altitude
Rises 23:45:26 0° 295° (WNW) 3,503 8.7 -17.2°
Reaches altitude 10° 23:48:17 10° 296° (WNW) 2,436 7.4 -17.8°
Maximum altitude 23:54:00 72° 20° (NNE) 743 3.4 -19.1°
Enters shadow 23:55:40 41° 93° (E) 978 3.6 -19.5°
